Погода Макушино

Погода Макушино : погода сейчас, прогноз погоды и архив. Всё, что Вы хотите узнать о погоде Макушино!

Поиск расширенной информации на нашем сайте:

Другие новости

Новости СМИ2

Главная страница сайта

Новости сайта

03.07.2017

Напоминаем, что на нашем специализированном сайте Метеоцентр.Азия вы можете получить высокодетализированные автоматические прогнозы погоды по пунктам России, СНГ и мира в авиационном формате (включающие направление и скорость ветра, видимость, явления погоды, количество и форму облачности, нижнюю и верхнюю границу облачности).

Рекомендуем: юрист недвижимость в Москве

Погода Макушино - сегодня

Время (UTC), дата Ветер
(°,м/с) 
Видим.   Явления Облачность Т
(°С)
Тd
(°С)
f(%) Тe
(°С)
Pmin
(гПа)
dP
(гПа)
Po
(мм)
O2
(г/м3)
Тmin Tmax R s Состояние
почвы
00 21.02.18 130 (ЮВ) 20000 м    ясно 
-11.7 -14.7 78 -15  1016.3  -2.5  749  316           
03 21.02.18 130 (ЮВ) 20000 м    9/0 верхняя 
[Ci sp]
-12.8 -16 77 -15  1013.9  -2.4  747  317  -12.8      15  равномерный
сухой снег
100% 
06 21.02.18 130 (ЮВ) 20000 м    8/0 верхняя 
[Ci sp]
-9.4 -14.6 66 -12  1011.3  -2.4  745  312           
09 21.02.18 200 (Ю) 20000 м    8/0 средняя, верхняя 
[Ac trans|Ci sp]
-6.4 -12.8 60 -9  1009.5  -1.5  744  308           
12 21.02.18 240 (ЮЗ) 20000 м    6/6 1000 м 
[Sc]
-9.2 -13.6 70 -12  1009.5  -0.2  744  311           
18 21.02.18 270 (З) 20000 м  {снег}  ясно 
-11 -13.5 82 -15  1013.1  1.9  746  314           
21 21.02.18 230 (ЮЗ) 20000 м    ясно 
-13.1 -15.5 82 -17  1015.4  2.1  748  318           
00 22.02.18 220 (ЮЗ) 20000 м    ясно 
-15.3 -17.6 83 -20  1016.9  1.3  749  321           
06 22.02.18 200 (Ю) 20000 м    ясно 
-12.5 -16.1 74 -16  1017.9  0.3  750  318  -17         
09 22.02.18 190 (Ю) 20000 м    6/0 верхняя 
[Ci sp]
-11 -16.3 65 -14  1017  -0.8  749  316           
12 22.02.18 210 (ЮЗ) 20000 м    5/0 верхняя 
[Ci sp]
-12.6 -16.3 74 -18  1017.1  749  318           
18 22.02.18 220 (ЮЗ) 20000 м  {снег}  ясно 
-16 -18.5 81 -20  1019.1  750  323           
21 22.02.18 220 (ЮЗ) 20000 м    ясно 
-17.2 -19.9 80 -21  1020  0.8  751  324           
00 23.02.18 210 (ЮЗ) 20000 м    ясно 
-19.2 -21.9 79 -23  1021  0.8  752  327           
06 23.02.18 240 (ЮЗ) 20000 м    ясно 
-16.2 -19.2 78 -19  1021.3  0.2  752  324  -20.7         
09 23.02.18 200 (Ю) 20000 м    ясно 
-11.8 -18.1 59 -14  1021  752  318           
12 23.02.18 210 (ЮЗ) 20000 м    ясно 
-12.5 -18.3 62 -15  1021.1  0.1  752  319           
15 23.02.18 200 (Ю) 20000 м    ясно 
-17.4 -20.3 78 -18  1021.4  0.1  752  325    -11.5       
18 23.02.18 210 (ЮЗ) 20000 м    ясно 
-19 -21.6 80 -23  1021.7  0.2  752  327           
21 23.02.18 230 (ЮЗ) 20000 м    ясно 
-21.9 -25 76 -22  1022.2  0.2  752  331           
00 24.02.18 230 (ЮЗ) 20000 м    ясно 
-22.7 -25.7 76 -26  1022.4  0.2  752  332           
06 24.02.18 240 (ЮЗ) 20000 м    ясно 
-18 -20.9 78 -22  1024  1.3  754  327           
09 24.02.18 250 (З) 20000 м    ясно 
-13.3 -19 62 -17  1024.1  0.5  754  321           
12 24.02.18 230 (ЮЗ) 20000 м    ясно 
-13.4 -19.2 62 -16  1024.8  0.7  755  321           
15 24.02.18 200 (Ю) 20000 м    ясно 
-18.1 -21.4 75 -22  1026.1  0.9  755  328    -12.6       
Время (UTC), дата Ветер
(°,м/с) 
Видим.   Явления Облачность Т
(°С)
Тd
(°С)
f(%) Тe
(°С)
Pmin
(гПа)
dP
(гПа)
Po
(мм)
O2
(г/м3)
Тmin Tmax R s Состояние
почвы

Для получения пояснительной информации подведите курсор к названию столбца.

ПОГОДА Макушино - архив

Всё, что Вы хотите узнать о погоде Макушино - удобно и подробно!

Выберите нужную дату (начиная с 1 января 2015* года) и нажмите кнопку "Найти".
Будут отображены архивные сводки погоды по пункту Макушино, начиная с указанной даты.


Отображать данные в формате CSV (для использования в таблицах Excel)


Внимание! Наш архив погоды предназначен исключительно для личного некоммерческого использования в познавательных целях. Если Вам необходимы официальные справки о состоянии погоды (для производственных, юридических, коммерческих и т.п. целей), обращайтесь в органы Росгидромета.

*Примечание: данная дата относится к архиву по метеостанциям СССР (Россия, СНГ, Балтия).
Архив по метеостанциям Зарубежной Европы и Азии (кроме Китая) хранится 10 дней, по другим регионам земного шара (Китай, Африка, Америка, Австралия, Океания) - 1 день.

Макушино - район местоположения метеостанции


Название, широта, долгота, высота метеостанции:
Макушино 55.2°ш. 67.3°д. 140 м над ур. моря [Российская Федерация]

Дополнительная информация

В oтличие oт бoльшинства пoгoдных сайтoв мы публикуем пoдрoбную метеoинфoрмацию в детальнoм прoфессиoнальнoм фoрмате.

Характеристики температуры и влажнoсти вoздуха измеряются на высoте 2 м в тени вдали oт зданий и деревьев.
Скoрoсть ветра измеряется на высoте 10 м (на урoвне рoста челoвека скoрoсть ветра ниже в 1.5-2 раза). Если метеoстанция нахoдится в гoрoде или в лесу, тo скoрoсть ветра занижена на 2-4 м/с пo сравнению с oткрытым местoм. Скoрoсть ветра над акватoриями крупных рек и oзёр, а также на вершинах хoлмoв на 2-5 м/с выше, чем в oбычных услoвиях.
Атмoсфернoе давление в разных тoчках местнoсти мoжет значительнo oтличаться oт давления на метеoстанции, в зависимoсти oт услoвий рельефа (при пoдъёме на 10 м давление пoнижается примернo на 1 мм рт.ст.).